Regional Weather Roundup
Issued by NWS

Home | Current Version | Previous Version | Graphics & Text | Print | Product List | Glossary Off
Versions: 1 2 3 4 5 6 7 8 9 10 11 12 13 14 15 16 17 18 19 20 21 22 23 24 25 26 27 28 29 30 31 32 33 34 35 36 37 38 39 40 41 42 43 44 45 46 47 48 49 50

000
ASUS43 KDTX 191010
RWRMI
MICHIGAN HOURLY REGIONAL WEATHER ROUNDUP
NATIONAL WEATHER SERVICE DETROIT/PONTIAC MI
600 AM EDT FRI SEP 19 2014

NOTE: "FAIR" INDICATES FEW OR NO CLOUDS BELOW 12,000 FEET WITH NO
SIGNIFICANT WEATHER AND/OR OBSTRUCTION TO VISIBILITY.

MIZ047>049-052>055-059>063-066>070-074>076-081>083-191100-
SOUTHEAST LOWER MICHIGAN

CITY           SKY/WX    TMP DP  RH WIND       PRES   REMARKS
ADRIAN         CLEAR     44  43  96 NE3       30.23S
ALMA           CLEAR     36  35  98 CALM      30.25R FOG
ANN ARBOR      FOG       36  35  96 CALM      30.23S VSB 3/4
BAD AXE        PTCLDY    32  32 100 CALM      30.26S FOG
CARO           CLEAR     32  32  99 CALM      30.24S FOG
DETROIT CITY   CLEAR     45  40  82 N3        30.24S
DETROIT        CLEAR     44  41  89 N3        30.24S
FLINT          CLEAR     40  37  89 CALM      30.25S
GROSSE ILE     CLEAR     45  43  93 CALM      30.22S
HILLSDALE      CLEAR     46  46 100 CALM      30.21S FOG
HOWELL         CLEAR     40  39  98 CALM      30.23S FOG

CITY           SKY/WX    TMP DP  RH WIND       PRES   REMARKS
JACKSON        CLEAR     44  42  93 E3        30.22S
LAMBERTVILLE   CLEAR     46  45  93 CALM      30.23S
LANSING        CLEAR     44  41  89 E3        30.23F
LAPEER         FAIR      32  32  99 CALM      30.24F FOG
MASON          CLEAR     41  40  97 CALM      30.23S FOG
MONROE         PTCLDY    46  45  93 CALM      30.22R
MT. CLEMENS    CLEAR     38  38 100 NW3       30.22S
PONTIAC        CLEAR     41  37  86 CALM      30.22F
PORT HOPE        N/A     39  38  96 SW5       30.24S
PORT HURON     CLEAR     32  32 100 CALM      30.25R FOG
TRI CITIES     CLEAR     39  37  92 CALM      30.26R
TROY           CLEAR     44  40  86 CALM      30.25S
SAGINAW HB     CLEAR     36  36 100 CALM      30.24F
$$
MIZ043>046-050>051-056>058-064>065-071>073-077>080-191100-
SOUTHWEST LOWER MICHIGAN

CITY           SKY/WX    TMP DP  RH WIND       PRES   REMARKS
BATTLE CREEK   MOCLDY    48  46  93 E6        30.21S FOG
BENTON HARBOR  CLEAR     51  50  96 SE7       30.17S FOG
BIG RAPIDS     CLEAR     41  41 100 CALM      30.22R
COLDWATER      CLEAR     48  47  95 E5        30.20S FOG
FREMONT        FAIR      45  44  97 E5        30.21R
HOLLAND        CLEAR     49  46  90 E6        30.20R FOG
GRAND RAPIDS   FOG       48  48 100 E7        30.21S VSB 3/4
IONIA          FAIR      43  43  99 E3        30.22S FOG
KALAMAZOO      CLEAR     45  43  93 CALM      30.21R FOG
LUDINGTON      CLEAR     47  45  93 SE8       30.19S
MARSHALL       CLEAR     44  44  99 E3        30.21S FOG
MOUNT PLEASANT   N/A     37  36  98 CALM      30.24R FOG
MUSKEGON       CLEAR     48  45  89 E8        30.20R
SOUTH HAVEN    CLEAR     51  51  97 SE5       30.19R FOG
$$
MIZ016>042-191100-
NORTHERN LOWER MICHIGAN

CITY           SKY/WX    TMP DP  RH WIND       PRES   REMARKS
ALPENA         CLEAR     33  31  92 CALM      30.26R
BEAVER ISLAND  CLOUDY    53  50  89 S6        30.17F
CADILLAC       CLEAR     42  39  89 SE7       30.20F
CHARLEVOIX     CLOUDY    47  43  87 SE9       30.22S
FRANKFORT      PTCLDY    49  43  79 SE8       30.18S
GAYLORD        CLOUDY    44  41  89 S10       30.22R
GRAYLING       CLOUDY    46  44  90 SE5       30.24R
HARBOR SPRINGS CLOUDY    46  42  83 E3        30.20F
HOUGHTON LAKE  CLEAR     42  40  92 SE3       30.23S
MANISTEE       CLEAR     45  41  87 SE7       30.20R
OSCODA         CLEAR     33  32  97 CALM      30.25S
PELLSTON       CLOUDY    46  41  82 SE8       30.20S
ROGERS CITY    CLEAR     41  37  87 S5        30.26R
TRAVERSE CITY  MOCLDY    48  41  76 S5        30.19R
$$
MIZ007>008-015-191100-
EASTERN UPPER MICHIGAN

CITY           SKY/WX    TMP DP  RH WIND       PRES   REMARKS
KINROSS        CLOUDY    45  43  93 SE6       30.20S
MACKINAC ISLAN CLOUDY    47  41  80 S14G20    30.20F
NEWBERRY       CLOUDY    49  47  93 S13       30.15S
S. S. MARIE    CLOUDY    43  40  89 E3        30.21S
MUNISING         N/A     49  44  83 S10       30.10S
$$
MIZ004>006-011>014-085-191100-
CENTRAL UPPER MICHIGAN

CITY           SKY/WX    TMP DP  RH WIND       PRES   REMARKS
MANISTIQUE     CLOUDY    55  52  89 S9        30.13F
ESCANABA       CLEAR     43  39  87 CALM      30.12F
MENOMINEE      PTCLDY    46  45  93 CALM      30.12S
SAWYER-GWINN   CLOUDY    46  43  92 S10       30.10F
$$
MIZ001>003-009>011-084-191100-
WESTERN UPPER MICHIGAN

CITY           SKY/WX    TMP DP  RH WIND       PRES   REMARKS
IRON MOUNTAIN  CLOUDY    49  46  90 S7        30.10F
HOUGHTON       MOCLDY    48  46  93 S14       30.00F FOG
COPPER HARBOR    N/A     51  47  86 SW10G20   29.99F
IRONWOOD       MOCLDY    54  52  94 S6        29.97F
$$

ABBREVIATIONS USED IN REMARKS
   TC - TEMPERATURE IN CELSIUS
  WCI - WIND CHILL INDEX
   HX - HEAT INDEX
  VSB - VISIBILITY




USA.gov is the U.S. government's official web portal to all federal, state and local government web resources and services.